TimeEDT,TemperatureF,Dew PointF,Humidity,Sea Level PressureIn,VisibilityMPH,Wind Direction,Wind SpeedMPH,Gust SpeedMPH,PrecipitationIn,Events,Conditions,WindDirDegrees,DateUTC
12:06 AM,57.2,53.6,88,30.17,10.0,Calm,Calm,-,N/A,,Clear,0,2012-10-25 04:06:00
12:28 AM,57.2,53.6,88,30.17,10.0,Calm,Calm,-,N/A,,Clear,0,2012-10-25 04:28:00
12:49 AM,55.4,53.6,94,30.17,10.0,Calm,Calm,-,N/A,,Clear,0,2012-10-25 04:49:00
1:10 AM,55.4,53.6,94,30.17,10.0,North,6.9,-,N/A,,Clear,10,2012-10-25 05:10:00
1:32 AM,57.2,53.6,88,30.18,10.0,North,4.6,-,N/A,,Clear,360,2012-10-25 05:32:00
1:53 AM,57.2,51.8,82,30.18,10.0,Calm,Calm,-,N/A,,Clear,0,2012-10-25 05:53:00
2:14 AM,51.8,51.8,100,30.18,10.0,Calm,Calm,-,N/A,,Clear,0,2012-10-25 06:14:00
2:36 AM,51.8,51.8,100,30.18,10.0,Calm,Calm,-,N/A,,Clear,0,2012-10-25 06:36:00
2:57 AM,53.6,53.6,100,30.18,10.0,North,3.5,-,N/A,,Clear,360,2012-10-25 06:57:00
3:18 AM,51.8,51.8,100,30.18,10.0,Calm,Calm,-,N/A,,Clear,0,2012-10-25 07:18:00
3:40 AM,51.8,50.0,94,30.17,10.0,Calm,Calm,-,N/A,,Clear,0,2012-10-25 07:40:00
4:01 AM,51.8,51.8,100,30.17,10.0,Calm,Calm,-,N/A,,Clear,0,2012-10-25 08:01:00
4:22 AM,50.0,50.0,100,30.17,10.0,Calm,Calm,-,N/A,,Clear,0,2012-10-25 08:22:00
4:43 AM,51.8,51.8,100,30.17,10.0,Calm,Calm,-,N/A,,Clear,0,2012-10-25 08:43:00
5:05 AM,51.8,51.8,100,30.18,10.0,Calm,Calm,-,N/A,,Clear,0,2012-10-25 09:05:00
5:26 AM,50.0,50.0,100,30.18,7.0,Calm,Calm,-,N/A,,Clear,0,2012-10-25 09:26:00
5:47 AM,50.0,50.0,100,30.18,10.0,Calm,Calm,-,N/A,,Clear,0,2012-10-25 09:47:00
6:09 AM,48.2,48.2,100,30.18,7.0,Calm,Calm,-,N/A,,Clear,0,2012-10-25 10:09:00
6:30 AM,48.2,48.2,100,30.19,4.0,Calm,Calm,-,N/A,,Clear,0,2012-10-25 10:30:00
6:51 AM,48.2,48.2,100,30.20,4.0,Calm,Calm,-,N/A,,Clear,0,2012-10-25 10:51:00
7:13 AM,50.0,50.0,100,30.20,7.0,Calm,Calm,-,N/A,,Clear,0,2012-10-25 11:13:00
7:34 AM,48.2,48.2,100,30.20,5.0,Calm,Calm,-,N/A,,Clear,0,2012-10-25 11:34:00
7:55 AM,48.2,48.2,100,30.21,7.0,Calm,Calm,-,N/A,,Clear,0,2012-10-25 11:55:00
8:16 AM,48.2,48.2,100,30.22,5.0,Calm,Calm,-,N/A,,Clear,0,2012-10-25 12:16:00
8:38 AM,50.0,50.0,100,30.23,5.0,Calm,Calm,-,N/A,,Clear,0,2012-10-25 12:38:00
8:59 AM,51.8,51.8,100,30.23,10.0,Calm,Calm,-,N/A,,Clear,0,2012-10-25 12:59:00
9:20 AM,53.6,53.6,100,30.23,10.0,Calm,Calm,-,N/A,,Clear,0,2012-10-25 13:20:00
9:41 AM,55.4,53.6,94,30.23,10.0,Calm,Calm,-,N/A,,Clear,0,2012-10-25 13:41:00
10:03 AM,57.2,53.6,88,30.23,10.0,Calm,Calm,-,N/A,,Clear,0,2012-10-25 14:03:00
10:24 AM,59.0,53.6,82,30.23,10.0,Calm,Calm,-,N/A,,Clear,0,2012-10-25 14:24:00
10:45 AM,60.8,53.6,77,30.23,10.0,Calm,Calm,-,N/A,,Clear,0,2012-10-25 14:45:00
11:06 AM,62.6,55.4,77,30.22,10.0,Calm,Calm,-,N/A,,Clear,0,2012-10-25 15:06:00
11:28 AM,66.2,53.6,64,30.22,10.0,Calm,Calm,-,N/A,,Clear,0,2012-10-25 15:28:00
11:49 AM,68.0,53.6,60,30.21,10.0,Calm,Calm,-,N/A,,Clear,0,2012-10-25 15:49:00
12:10 PM,69.8,53.6,56,30.20,10.0,Calm,Calm,-,N/A,,Clear,0,2012-10-25 16:10:00
12:31 PM,71.6,55.4,57,30.20,10.0,South,4.6,-,N/A,,Clear,180,2012-10-25 16:31:00
12:53 PM,71.6,55.4,57,30.19,10.0,SSW,4.6,-,N/A,,Clear,200,2012-10-25 16:53:00
1:14 PM,73.4,55.4,53,30.18,10.0,SSW,4.6,-,N/A,,Clear,200,2012-10-25 17:14:00
1:35 PM,73.4,55.4,53,30.17,10.0,SW,5.8,-,N/A,,Clear,220,2012-10-25 17:35:00
1:56 PM,75.2,55.4,50,30.16,10.0,South,5.8,-,N/A,,Clear,190,2012-10-25 17:56:00
2:18 PM,77.0,55.4,47,30.15,10.0,SSW,4.6,-,N/A,,Clear,210,2012-10-25 18:18:00
2:39 PM,78.8,55.4,44,30.14,10.0,East,3.5,-,N/A,,Clear,80,2012-10-25 18:39:00
3:00 PM,78.8,55.4,44,30.13,10.0,SE,9.2,-,N/A,,Clear,140,2012-10-25 19:00:00
3:22 PM,78.8,57.2,47,30.14,10.0,East,8.1,-,N/A,,Clear,100,2012-10-25 19:22:00
3:43 PM,77.0,59.0,54,30.14,10.0,ESE,8.1,-,N/A,,Clear,120,2012-10-25 19:43:00
4:04 PM,77.0,59.0,54,30.14,10.0,ESE,6.9,-,N/A,,Clear,120,2012-10-25 20:04:00
4:25 PM,75.2,59.0,57,30.14,10.0,ESE,8.1,-,N/A,,Clear,120,2012-10-25 20:25:00
4:46 PM,73.4,59.0,61,30.13,10.0,NE,5.8,-,N/A,,Clear,50,2012-10-25 20:46:00
5:08 PM,73.4,59.0,61,30.14,7.0,NE,3.5,-,N/A,,Clear,40,2012-10-25 21:08:00
5:29 PM,71.6,59.0,64,30.14,10.0,NE,3.5,-,N/A,,Clear,50,2012-10-25 21:29:00
5:50 PM,69.8,59.0,68,30.14,7.0,NNE,4.6,-,N/A,,Clear,30,2012-10-25 21:50:00
6:11 PM,68.0,59.0,73,30.15,7.0,NE,5.8,-,N/A,,Clear,50,2012-10-25 22:11:00
6:33 PM,66.2,59.0,78,30.16,10.0,NE,4.6,-,N/A,,Clear,50,2012-10-25 22:33:00
6:54 PM,64.4,59.0,83,30.16,10.0,NE,5.8,-,N/A,,Clear,40,2012-10-25 22:54:00
7:15 PM,64.4,59.0,83,30.17,10.0,NE,3.5,-,N/A,,Clear,40,2012-10-25 23:15:00
7:36 PM,62.6,59.0,88,30.18,10.0,NNE,5.8,-,N/A,,Clear,30,2012-10-25 23:36:00
7:58 PM,62.6,59.0,88,30.18,7.0,NE,5.8,-,N/A,,Clear,40,2012-10-25 23:58:00
8:19 PM,62.6,59.0,88,30.18,7.0,NE,5.8,-,N/A,,Clear,40,2012-10-26 00:19:00
8:40 PM,60.8,59.0,94,30.19,7.0,NE,4.6,-,N/A,,Clear,40,2012-10-26 00:40:00
9:01 PM,60.8,59.0,94,30.18,7.0,NNE,3.5,-,N/A,,Scattered Clouds,30,2012-10-26 01:01:00
9:23 PM,60.8,59.0,94,30.19,7.0,Calm,Calm,-,N/A,,Mostly Cloudy,0,2012-10-26 01:23:00
9:44 PM,62.6,59.0,88,30.19,7.0,Calm,Calm,-,N/A,,Scattered Clouds,0,2012-10-26 01:44:00
10:05 PM,62.6,59.0,88,30.18,7.0,Calm,Calm,-,N/A,,Scattered Clouds,0,2012-10-26 02:05:00
10:27 PM,60.8,59.0,94,30.18,7.0,Calm,Calm,-,N/A,,Scattered Clouds,0,2012-10-26 02:27:00
11:09 PM,60.8,59.0,94,30.18,5.0,Calm,Calm,-,N/A,,Scattered Clouds,0,2012-10-26 03:09:00
11:31 PM,60.8,59.0,94,30.17,5.0,Calm,Calm,-,N/A,,Scattered Clouds,0,2012-10-26 03:31:00
11:52 PM,59.0,59.0,100,30.17,5.0,Calm,Calm,-,N/A,,Scattered Clouds,0,2012-10-26 03:52:00